sat.trackr.live / text

‹ back to catalog

2026-052F

NORAD 68203 · 2026-052F

PAYLOAD ACTIVE UNKNOWN

§ Identity

Operator
Country
PRC
Launch date
2026-03-16
Launch site
JSC
Launch vehicle
Mass (kg)
RCS (m²)

External: N2YO · Heavens-Above · Gunter

§ Orbital elements

Epoch: 2026-05-25T03:36:57.971808Z

Period
95.28 min
Inclination
97.5328°
Eccentricity
0.0011273
Mean motion
15.11361899 rev/d
Perigee alt
524.3 km
Apogee alt
539.8 km
Semi-major
6,910.2 km
B*
3.4610e-4
RAAN
220.3599°
Arg perigee
32.7761°
Mean anomaly
327.4166°
Rev number
1,057

§ Raw data

2026-052F1 68203U 26052F   26145.15067097  .00005783  00000+0  34610-3 0  99962 68203  97.5328 220.3599 0011273  32.7761 327.4166 15.11361899 10571

JSON: /api/v1/satellites/68203 · /tle

For live sub-satellite position, see the globe view (requires WebGL).

§ Visibility from observer

Set your observer location to see the next 7 days of passes ≥ 10°. The values pass through the URL so the page stays shareable.

No JS? Fill the form by hand. The geolocation button needs JavaScript.